Location: Morisset
(33.1080°S, 151.4871°E)
Time: 07:39:50
(UTC+00:00)

Cosmos 2082 Rocket - Pass Details

Date: 29 October 2020
Orbit: 833 x 854 km, 71.0° (Epoch: 27 November)

Event Time Altitude Azimuth Distance (km) Brightness Sun altitude
Rises 15:04:19 0° 188° (S) 3,435 6.0 -38.8°
Reaches altitude 10° 15:07:13 10° 175° (S) 2,489 5.3 -38.5°
Maximum altitude 15:11:54 26° 119° (ESE) 1,629 4.0 -38.0°
Enters shadow 15:11:58 26° 118° (ESE) 1,629 4.0 -38.0°
